This is the latest recevied weather packets stored in our database for station/object KC3ELT-10. If no packets are shown the sender has not sent any weather packets the latest 10 day(s).
| Time | Temp. | Humidity | Pressure | Rain* | Wind** | Luminosity | Snow |
|---|---|---|---|---|---|---|---|
| 1777635478 | 5° C | 84% | 1008.5 hPa | 0 mm | 2.68 m/s, 322° | - | - |
| 1777635178 | 5° C | 84% | 1008.5 hPa | 0 mm | 1.34 m/s, 307° | - | - |
| 1777634879 | 5° C | 84% | 1008.3 hPa | 0 mm | 2.68 m/s, 271° | - | - |
| 1777634578 | 5° C | 84% | 1008.3 hPa | 0 mm | 2.24 m/s, 295° | - | - |
| 1777634279 | 5° C | 84% | 1008.3 hPa | 0 mm | 1.79 m/s, 288° | - | - |
| 1777633979 | 4.44° C | 85% | 1008.2 hPa | 0 mm | 0.89 m/s, 315° | - | - |
| 1777633679 | 4.44° C | 85% | 1008.2 hPa | 0 mm | 1.79 m/s, 293° | - | - |
| 1777633379 | 4.44° C | 85% | 1008.2 hPa | 0 mm | 2.24 m/s, 302° | - | - |
| 1777633078 | 4.44° C | 85% | 1008.1 hPa | 0 mm | 1.79 m/s, 269° | - | - |
| 1777632779 | 4.44° C | 85% | 1008.1 hPa | 0 mm | 0.89 m/s, 275° | - | - |
| 1777632479 | 4.44° C | 85% | 1008.1 hPa | 0 mm | 0.89 m/s, 298° | - | - |
| 1777632178 | 4.44° C | 85% | 1008.2 hPa | 0 mm | 3.13 m/s, 289° | - | - |
| 1777631878 | 4.44° C | 85% | 1008.2 hPa | 0 mm | 1.34 m/s, 307° | - | - |
| 1777631578 | 4.44° C | 85% | 1008.2 hPa | 0 mm | 2.24 m/s, 300° | - | - |
| 1777631279 | 4.44° C | 85% | 1008.2 hPa | 0 mm | 3.13 m/s, 290° | - | - |
| 1777630978 | 4.44° C | 85% | 1008.2 hPa | 0 mm | 2.68 m/s, 293° | - | - |
| 1777630678 | 4.44° C | 85% | 1008.2 hPa | 0 mm | 2.24 m/s, 300° | - | - |
| 1777630379 | 4.44° C | 85% | 1010.3 hPa | 0 mm | 2.68 m/s, 310° | - | - |
| 1777630081 | 4.44° C | 85% | 1010.3 hPa | 0 mm | 0.89 m/s, 288° | - | - |
| 1777629778 | 4.44° C | 84% | 1010.3 hPa | 0 mm | 4.02 m/s, 297° | - | - |
| 1777629479 | 4.44° C | 84% | 1007.5 hPa | 0 mm | 1.79 m/s, 271° | - | - |
| 1777629179 | 4.44° C | 84% | 1007.5 hPa | 0 mm | 2.24 m/s, 277° | - | - |
| 1777628879 | 4.44° C | 83% | 1007.5 hPa | 0 mm | 1.34 m/s, 251° | - | - |
| 1777628579 | 4.44° C | 82% | 1007.3 hPa | 0 mm | 1.79 m/s, 293° | - | - |
| 1777628279 | 5° C | 82% | 1007.3 hPa | 0 mm | 0.89 m/s, 307° | - | - |
* Rain latest hour (hover to see other rain measurements)
** Current wind speed in m/s (hover to see current wind gust speed)